www.pogodaiklimat.ru

Погода и климат >> Архив погоды >> Россия >> Камчатский край >> Ключи


ПОГОДА в Ключах

  • Прогноз погоды в Ключах
  • Монитор погоды в Ключах
  • Климат города

АРХИВ ПОГОДЫ в Ключах

Время (UTC), дата Ветер
(напр.,м/с)
 
Видим.   Явления Облачность Т
(С)
Тd
(С)
f
(%)
Тe
(С)
Тes
(С)
Комфортность P
(гПа)
Po
(гПа)
Тmin
(С)
Tmax
(С)
R
(мм)
R24
(мм)
S
(см)
00 11.11 З 3 50 км 8/0
[Ac trans Ci fib]
-9.6 -14.1 70 -15 -15 1036.3 1032.5 -14.1
03 11.11 З 1 50 км 8/0
[Ac trans Ci fib]
-5.6 -13.8 52 -7 -7 1034.7 1030.9
06 11.11 В 2 50 км 8/0
[Ac trans Ci fib]
-8.8 -14.4 64 -13 -13 1034.4 1030.5
09 11.11 В 2 50 км 6/0
[Ac trans]
-11.2 -15.0 73 -16 -16 1034.8 1030.9 -4.7
12 11.11 В 3 50 км 9/3 1000 м
[Sc Ac trans]
-9.6 -12.5 79 -15 -15 1033.7 1029.8
15 11.11 В 3 50 км 9/4 1000 м
[Sc Ac trans]
-8.8 -12.3 76 -15 -15 1032.2 1028.4
18 11.11 В 3 50 км 9/6 1000 м
[Sc Ac trans]
-7.9 -10.7 80 -14 -14 1031.4 1027.5
21 11.11 В 4 50 км 10/4 1000 м
[Sc Ac As]
-6.4 -10.1 75 -13 -13 1030.1 1026.3 -11.6
00 12.11 В 6-10
{11}
10 км в посл. час снег 10/6 600 м
[Sc As op]
-2.6 -7.1 71 -10 -10 1028.1 1024.4
03 12.11 В 5
{11}
10 км слабый снег 10/6 800 м
[Sc As op]
-2.4 -6.2 75 -9 -9 1026.1 1022.4
06 12.11 В 4 4000 м слабый снег 10/8 480 м
[Sc As op]
-2.4 -6.2 75 -8 -8 1026.1 1021.0
09 12.11 В 6-10
{10}
4000 м слабый снег 10/10 330 м
[Frnb Ns]
-0.7 -2.3 89 -8 -8 1023.2 1019.5 -0.7 1
12 12.11 В 6
{11}
4000 м слабый снег {метель} 10/10 330 м
[Frnb Ns]
-0.7 -1.9 92 -8 -8 1022.4 1018.7
15 12.11 В 7-11
{11}
1000 м снег {метель} 10/10 200 м
[Frnb Ns]
0.0 -0.6 96 -7 -7 1021.4 1017.7
18 12.11 В 6-10
{12}
1000 м снег {метель} 10/10 200 м
[Frnb Ns]
+0.1 -0.5 96 -7 -7 1021.3 1017.6
21 12.11 В 6-11
{11}
4000 м слабый дождь {снег, метель} 10/8 200 м
[Frnb As op]
+1.1 +0.4 95 -5 -5 1022.2 1018.5 -1.4 5 2
00 13.11 В 7-13
{13}
4000 м слабый дождь {снег, метель} 10/10 300 м
[Frnb Ns]
+1.3 +0.2 92 -6 -6 1022.6 1018.9
03 13.11 В 7-12
{13}
4000 м слабый дождь 10/10 330 м
[Frnb Ns]
+2.2 +0.8 90 -4 -4 1022.3 1018.6
06 13.11 В 7-10
{12}
4000 м слабый дождь 10/10 360 м
[Frnb Ns]
+1.7 +0.4 91 -5 -5 1022.8 1019.1
09 13.11 В 6-11
{12}
4000 м слабый ливневой дождь 10/10 300 м
[Cb cap]
+1.3 -0.1 90 -5 -5 1023.1 1019.4 +2.3 9
12 13.11 В 5
{11}
4000 м слабый ливневой снег 10/10 330 м
[Cb cap]
+1.0 -0.6 89 -5 -5 1023.5 1019.8
15 13.11 В 6-12
{12}
4000 м слабый ливневой снег 10/10 420 м
[Cb cap]
+0.7 -1.9 83 -6 -6 1023.7 1020.0
18 13.11 В 4
{13}
10 км {ливн. осадки} 10/8 750 м
[Sc diur, vesp Ac As]
+0.6 -4.3 70 -4 -4 1024.4 1020.7
21 13.11 В 4 10 км 10/8 800 м
[Sc Ac As]
+0.3 -4.6 70 -5 -5 1025.2 1021.5 +0.3 0.8
00 14.11 В 4 10 км 10/6 600 м
[Sc Ac As]
+0.5 -4.3 70 -5 -4 1025.7 1022.0 +0.2
03 14.11 В 5 20 км 9/6 960 м
[Sc Ac trans]
+0.7 -4.5 68 -5 -5 1024.8 1021.1
06 14.11 В 4 20 км 10/6 600 м
[Sc Ac As]
0.0 -3.9 75 -5 -5 1025.2 1021.5
09 14.11 В 3 50 км 10/8 1000 м
[Sc Ac As]
-0.6 -5.3 70 -5 -5 1025.8 1022.1 +0.9
12 14.11 В 3 50 км 10/8 1000 м
[Sc Ac As]
-0.8 -5.9 68 -5 -5 1025.9 1022.2
15 14.11 В 3 50 км 8/6 1000 м
[Sc Ac trans]
-1.8 -6.3 71 -7 -7 1025.3 1021.6
18 14.11 В 3 50 км 4/3 1000 м
[Sc Ac trans]
-3.4 -5.8 83 -9 -9 1024.7 1021.0
21 14.11 ЮВ 3 50 км 9/6 1000 м
[Sc Ac trans]
-3.0 -5.6 82 -8 -8 1024.5 1020.8 -3.5
00 15.11 В 2 50 км 9/6 1000 м
[Sc Ac trans]
-1.6 -5.2 76 -5 -5 1023.8 1020.1
03 15.11 В 1 50 км 9/3 1000 м
[Sc Ac trans Ci fib]
-0.1 -5.2 68 -2 -1 1021.5 1017.8
06 15.11 В 2 50 км 9/3 1000 м
[Sc Ac trans]
-1.6 -6.0 72 -5 -5 1020.7 1017.0
09 15.11 В 3 50 км 9/3 1000 м
[Sc Ac trans]
-2.1 -5.9 75 -7 -7 1019.5 1015.8 +0.1
12 15.11 В 3 50 км 10/4 1000 м
[Sc Ac As]
-2.5 -5.3 81 -8 -8 1018.4 1014.7
15 15.11 В 3 50 км 10/4 1000 м
[Sc Ac As]
-3.8 -5.4 89 -9 -9 1016.3 1012.6
18 15.11 В 2 50 км 10/4 1000 м
[Sc Ac As]
-3.9 -5.7 87 -8 -8 1015.1 1011.4
21 15.11 В 2 50 км в посл. час ливневой снег 10/4 1000 м
[Sc Ac As]
-4.5 -5.9 90 -9 -9 1014.2 1010.5 -4.5 1
00 16.11 СВ 1 20 км слабый ливневой снег 9/8 900 м
[Cb cap Ac trans]
-2.9 -4.6 88 -5 -5 1013.0 1009.3
03 16.11 штиль 0 20 км слабый ливневой снег 9/8 900 м
[Cb cap Ac trans]
-1.7 -4.1 84 -3 -3 1011.5 1007.8
06 16.11 В 1 50 км {ливн. осадки} 9/8 1000 м
[Sc diur, vesp Ac trans]
-2.9 -4.4 89 -5 -5 1011.3 1007.6
09 16.11 штиль 0 20 км слабый ливневой снег 9/8 900 м
[Cb cap Ac trans]
-4.4 -5.4 93 -6 -6 1011.6 1007.9 -1.3 0.4
12 16.11 З 2 20 км слабый ливневой снег 9/8 930 м
[Cb cap Ac trans]
-4.6 -5.5 93 -9 -9 1011.8 1008.1
15 16.11 З 3 4000 м слабый ливневой снег 10/10 360 м
[Cb cap]
-4.3 -5.3 93 -10 -10 1011.7 1008.0
18 16.11 З 3 4000 м дымка {ливн. осадки} 10/10 360 м
[St]
-3.2 -4.6 90 -9 -9 1012.1 1008.4
21 16.11 З 3 4000 м слабый ливневой дождь 10/10 400 м
[Cb cap]
-3.4 -4.8 90 -9 -9 1012.9 1009.2 -4.9 0.8 1
00 17.11 З 3 50 км {ливн. осадки} 8/4 1000 м
[Sc Ac trans Ci fib]
-3.6 -6.7 79 -9 -8 1013.4 1009.7
03 17.11 З 2 50 км 9/3 1000 м
[Sc Ac trans]
-2.2 -7.2 69 -6 -6 1013.0 1009.3
06 17.11 З 1 50 км 4/3 1000 м
[Sc Ac trans]
-5.2 -7.9 81 -7 -7 1013.3 1009.6
09 17.11 ЮЗ 1 50 км 8/3 1000 м
[Sc Ac trans]
-5.6 -7.4 87 -8 -8 1013.9 1010.2 -1.7
12 17.11 ЮЗ 1 50 км 9/4 1000 м
[Sc Ac trans]
-6.4 -8.1 88 -9 -9 1013.9 1010.1
15 17.11 ЮВ 2 50 км 8/3 1000 м
[Sc Ac trans]
-8.4 -9.7 90 -13 -13 1013.4 1009.6
18 17.11 ЮВ 2 50 км 9/4 1000 м
[Sc Ac trans]
-7.5 -8.7 91 -12 -12 1013.2 1009.4

 

Местоположение метеостанции Ключи (Камчатский край, Россия): широта 56.32 долгота 160.80 высота над уровнем моря 29 м.

В архиве по умолчанию представлена погода в Ключах за последнюю неделю. Архивные данные за месяц целиком и за предыдущие месяцы, начиная с января 2011 года, Вы можете получить, выбрав интересующий диапазон дат из раскрывающегося списка и нажав кнопку "Ввод!".


*Определитесь, кто Вы:
робот инопланетянин человек

Внимание! Время в таблицах - всемирное. Для получения местного времени необходимо прибавить поправку, которая в Ключах равна 12 ч.

Смотрите также архив погоды в соседних городах и на ближайших метеорологических станциях:

Погода в Козыревске (Камчатский край, Россия) (69 км)
Погода в Усть-Камчатске (Камчатский край, Россия) (118 км)
Погода в Эссо (Камчатский край, Россия) (137 км)
Погода на Мысе Африка (Камчатский край, Россия) (155 км)
Погода в Долиновке (Камчатский край, Россия) (175 км)
Погода в Тигиле (Камчатский край, Россия) (207 км)
Погода на Мысе Озерном (Камчатский край, Россия) (207 км)
Погода в Мильково (Камчатский край, Россия) (233 км)
Погода в Семячике (Камчатский край, Россия) (251 км)
Погода в Усть-Воямполке (Камчатский край, Россия) (263 км)

Пояснения к столбцам:

Ветер - указаны скорость ветра в м/с - средняя за 10 мин, порывы в срок и между сроками (в фигурных скобках) и направление, откуда дует ветер: С - северный, СВ - северо-восточный, В - восточный, ЮВ - юго-восточный, Ю - южный, ЮЗ - юго-западный, З - западный, СЗ - северо-западный.
Видимость - горизонтальная дальность видимости в метрах или километрах. При видимости от 1 до 10 км при отсутствии осадков обычно наблюдается дымка, при ухудшении видимости до 1 км и менее - туман. В сухую погоду видимость может ухудшаться дымом, пылью или мглою.
Явления - указаны атмосферные явления, наблюдавшиеся в срок или в последний час перед сроком; фигурными скобками обозначены явления, наблюдавшиеся между сроками (за 1-3 часа до срока); квадратными скобками обозначены град или гололедные отложения с указанием их диаметра в мм.
Облачность - указаны через наклонную черту общая и нижняя облачность в баллах и высота нижней границы облаков в метрах; квадратными скобками обозначены формы облаков: Ci - перистые, Cs - перисто-слоистые, Cc - перисто-кучевые, Ac - высококучевые, As - высокослоистые, Sc - слоисто-кучевые, Ns - слоисто-дождевые, Cu - кучевые, Cb - кучево-дождевые. Подробнее классификацию облаков см. в Атласе облаков (PDF).
T - Температура воздуха - температура, измеренная на высоте 2 м над землей.
Td - Температура точки росы - температура, при понижении до которой содержащийся в воздухе водяной пар достигнет насыщения.
f - Относительная влажность воздуха - влажноcть воздуха, измеренная на высоте 2 м над землей.
Te - Эффективная температура - температура, которую ощущает одетый по сезону человек в тени. Характеристика душности погоды. При расчете учитывается влияние влажности воздуха и скорости ветра на теплоощущения человека.
Tes - Эффективная температура на солнце - температура, которую ощущает человек, с поправкой на солнечный нагрев. Характеристика знойности погоды. Зависит от высоты солнца над горизонтом, облачности и скорости ветра. Ночью, в пасмурную погоду, а также при ветре 12 м/с и более поправка равна нулю.
P - Атмосферное давление - приведенное к уровню моря атмосферное давление.
Po - Атмосферное давление - измеренное на уровне метеостанции атмосферное давление.
Tmin - Минимальная температура - минимум температуры воздуха на высоте 2 м над землей.
Tmax - Максимальная температура - максимум температуры воздуха на высоте 2 м над землей.
R - Количество осадков - Количество выпавших осадков за период времени, мм. При наведении курсора мыши на число - период времени, за который выпало указанное количество осадков.
R24 - Количество осадков - Количество выпавших осадков за 24 часа, мм.
S - Снежный покров - Высота снежного покрова, см. При наведении курсора мыши на число - состояние снежного покрова и степень покрытия местности в баллах.